CMP839 MNMG-MROC

Flight info

Callsign CMP839
Flight time 0h 35m
Altitude 25000
Route IMOLA1 IMOLA UZ512 LIB BARRA3L
Aircraft B38M/M-SDE1FGHILORVWXY/HB1

Departure

Time 2026-05-08 22:50
Airport Augusto C. Sandino (Managua) International Airport (MNMG)

Arrival

Time 2026-05-08 23:25
Airport Juan Santamaría International Airport (MROC)
Time Latitude Longitude Altitude Speed Heading
2026-05-08 22:31 12.14380 -86.17055 208 ft 0 kts
2026-05-08 22:43 12.14376 -86.17055 210 ft 1 kts
2026-05-08 22:43 12.14367 -86.17056 209 ft 1 kts
2026-05-08 22:43 12.14357 -86.17057 199 ft 1 kts
2026-05-08 22:44 12.14347 -86.17056 211 ft 1 kts 343°
2026-05-08 22:44 12.14339 -86.17052 209 ft 1 kts 325°
2026-05-08 22:44 12.14331 -86.17046 200 ft 1 kts 324°
2026-05-08 22:44 12.14323 -86.17040 203 ft 1 kts 318°
2026-05-08 22:45 12.14316 -86.17033 206 ft 1 kts 303°
2026-05-08 22:45 12.14312 -86.17025 212 ft 1 kts 285°
2026-05-08 22:45 12.14312 -86.17024 212 ft 0 kts 284°
2026-05-08 22:47 12.14314 -86.17037 208 ft 3 kts 279°
2026-05-08 22:47 12.14318 -86.17069 204 ft 6 kts 277°
2026-05-08 22:48 12.14324 -86.17121 200 ft 9 kts 276°
2026-05-08 22:48 12.14333 -86.17204 204 ft 20 kts 277°
2026-05-08 22:48 12.14355 -86.17406 199 ft 37 kts 274°
2026-05-08 22:48 12.14386 -86.17683 201 ft 31 kts 276°
2026-05-08 22:49 12.14354 -86.17815 203 ft 19 kts 241°
2026-05-08 22:49 12.14263 -86.17764 208 ft 25 kts 96°
2026-05-08 22:49 12.14209 -86.17285 198 ft 108 kts 97°
2026-05-08 22:50 12.14096 -86.16302 293 ft 165 kts 96°
2026-05-08 22:50 12.13954 -86.15047 832 ft 194 kts 96°
2026-05-08 22:50 12.13765 -86.13569 1399 ft 223 kts 99°
2026-05-08 22:50 12.13535 -86.11990 2587 ft 219 kts 98°
2026-05-08 22:51 12.13340 -86.10504 3980 ft 213 kts 96°
2026-05-08 22:51 12.13130 -86.08901 4568 ft 242 kts 96°
2026-05-08 22:51 12.12708 -86.07203 5526 ft 251 kts 115°
2026-05-08 22:51 12.11566 -86.05832 6593 ft 262 kts 142°
2026-05-08 22:52 12.09892 -86.05055 7494 ft 275 kts 160°
2026-05-08 22:52 12.08030 -86.04497 8388 ft 285 kts 161°
2026-05-08 22:52 12.06084 -86.03940 9225 ft 294 kts 162°
2026-05-08 22:52 12.04100 -86.03375 10145 ft 299 kts 162°
2026-05-08 22:53 12.02078 -86.02798 10993 ft 304 kts 162°
2026-05-08 22:53 12.00034 -86.02213 11912 ft 306 kts 162°
2026-05-08 22:53 11.97953 -86.01617 12627 ft 318 kts 162°
2026-05-08 22:53 11.95755 -86.00989 13047 ft 338 kts 161°
2026-05-08 22:54 11.93424 -86.00322 13447 ft 356 kts 161°
2026-05-08 22:54 11.90998 -85.99629 13909 ft 369 kts 162°
2026-05-08 22:54 11.88545 -85.98929 14559 ft 372 kts 162°
2026-05-08 22:54 11.86040 -85.98213 15212 ft 377 kts 162°
2026-05-08 22:55 11.83502 -85.97488 15851 ft 381 kts 162°
2026-05-08 22:55 11.80940 -85.96752 16457 ft 385 kts 162°
2026-05-08 22:55 11.78348 -85.96011 17038 ft 389 kts 162°
2026-05-08 22:55 11.75727 -85.95263 17632 ft 393 kts 162°
2026-05-08 22:56 11.73078 -85.94506 18167 ft 398 kts 163°
2026-05-08 22:56 11.70398 -85.93740 18667 ft 400 kts 162°
2026-05-08 22:56 11.67748 -85.92984 19204 ft 402 kts 163°
2026-05-08 22:56 11.65056 -85.92215 19745 ft 403 kts 162°
2026-05-08 22:57 11.62349 -85.91442 20234 ft 406 kts 162°
2026-05-08 22:57 11.59623 -85.90664 20716 ft 408 kts 161°
2026-05-08 22:57 11.56884 -85.89883 21229 ft 409 kts 161°
2026-05-08 22:57 11.54135 -85.89099 21731 ft 411 kts 161°
2026-05-08 22:58 11.51373 -85.88312 22205 ft 413 kts 161°
2026-05-08 22:58 11.48598 -85.87521 22706 ft 415 kts 161°
2026-05-08 22:58 11.45806 -85.86725 23165 ft 417 kts 161°
2026-05-08 22:58 11.43040 -85.85938 23570 ft 420 kts 161°
2026-05-08 22:59 11.40218 -85.85134 23915 ft 422 kts 161°
2026-05-08 22:59 11.37380 -85.84325 24275 ft 425 kts 161°
2026-05-08 22:59 11.34527 -85.83513 24627 ft 427 kts 161°
2026-05-08 22:59 11.31649 -85.82693 24767 ft 431 kts 161°
2026-05-08 23:00 11.28719 -85.81858 24777 ft 443 kts 161°
2026-05-08 23:00 11.25722 -85.81005 24785 ft 453 kts 161°
2026-05-08 23:00 11.22658 -85.80135 24784 ft 462 kts 162°
2026-05-08 23:00 11.19600 -85.79070 24789 ft 467 kts 155°
2026-05-08 23:01 11.16552 -85.77829 24786 ft 474 kts 156°
2026-05-08 23:01 11.13498 -85.76621 24789 ft 480 kts 156°
2026-05-08 23:01 11.10364 -85.75399 24791 ft 484 kts 156°
2026-05-08 23:01 11.07208 -85.74177 24792 ft 486 kts 156°
2026-05-08 23:02 11.04097 -85.72911 24814 ft 472 kts 155°
2026-05-08 23:02 11.01107 -85.71680 24826 ft 459 kts 155°
2026-05-08 23:02 10.98130 -85.70459 24805 ft 464 kts 155°
2026-05-08 23:02 10.95117 -85.69226 24807 ft 469 kts 155°
2026-05-08 23:03 10.92074 -85.67980 24805 ft 474 kts 155°
2026-05-08 23:03 10.89043 -85.66740 24803 ft 478 kts 155°
2026-05-08 23:03 10.85949 -85.65475 24804 ft 481 kts 155°
2026-05-08 23:03 10.82836 -85.64202 24799 ft 483 kts 155°
2026-05-08 23:04 10.79717 -85.62927 24804 ft 483 kts 155°
2026-05-08 23:04 10.76600 -85.61652 24796 ft 483 kts 155°
2026-05-08 23:04 10.73478 -85.60377 24802 ft 483 kts 155°
2026-05-08 23:04 10.70359 -85.59103 24795 ft 483 kts 155°
2026-05-08 23:05 10.67240 -85.57829 24792 ft 483 kts 155°
2026-05-08 23:05 10.64122 -85.56553 24801 ft 483 kts 155°
2026-05-08 23:05 10.61196 -85.54924 24643 ft 477 kts 141°
2026-05-08 23:05 10.58873 -85.52661 24260 ft 462 kts 126°
2026-05-08 23:06 10.57247 -85.49907 23863 ft 449 kts 115°
2026-05-08 23:06 10.55843 -85.47107 23470 ft 440 kts 115°
2026-05-08 23:06 10.54477 -85.44359 23045 ft 432 kts 115°
2026-05-08 23:06 10.53149 -85.41651 22655 ft 428 kts 114°
2026-05-08 23:07 10.51830 -85.38942 22275 ft 428 kts 114°
2026-05-08 23:07 10.50518 -85.36235 21913 ft 426 kts 114°
2026-05-08 23:07 10.49210 -85.33536 21530 ft 426 kts 114°
2026-05-08 23:07 10.47907 -85.30846 21164 ft 423 kts 114°
2026-05-08 23:08 10.46611 -85.28170 20802 ft 421 kts 114°
2026-05-08 23:08 10.45319 -85.25504 20443 ft 419 kts 114°
2026-05-08 23:08 10.44034 -85.22852 20084 ft 418 kts 114°
2026-05-08 23:08 10.42766 -85.20239 19723 ft 418 kts 115°
2026-05-08 23:09 10.41480 -85.17589 19365 ft 417 kts 114°
2026-05-08 23:09 10.40209 -85.14971 19013 ft 410 kts 115°
2026-05-08 23:09 10.38972 -85.12422 18687 ft 393 kts 114°
2026-05-08 23:09 10.37787 -85.09984 18368 ft 378 kts 115°
2026-05-08 23:10 10.36626 -85.07590 18011 ft 378 kts 115°
2026-05-08 23:10 10.35464 -85.05196 17653 ft 376 kts 114°
2026-05-08 23:10 10.34312 -85.02826 17308 ft 371 kts 114°
2026-05-08 23:10 10.33193 -85.00524 16990 ft 367 kts 113°
2026-05-08 23:11 10.32071 -84.98213 16670 ft 363 kts 112°
2026-05-08 23:11 10.30959 -84.95926 16372 ft 360 kts 113°
2026-05-08 23:11 10.29854 -84.93652 16051 ft 358 kts 114°
2026-05-08 23:11 10.28751 -84.91387 15663 ft 357 kts 113°
2026-05-08 23:12 10.27657 -84.89137 15362 ft 354 kts 113°
2026-05-08 23:12 10.26572 -84.86905 15058 ft 351 kts 113°
2026-05-08 23:12 10.25495 -84.84691 14757 ft 348 kts 113°
2026-05-08 23:12 10.24427 -84.82494 14459 ft 346 kts 112°
2026-05-08 23:13 10.23375 -84.80334 14179 ft 345 kts 113°
2026-05-08 23:13 10.22311 -84.78149 13895 ft 345 kts 113°
2026-05-08 23:13 10.21253 -84.75976 13595 ft 340 kts 112°
2026-05-08 23:13 10.20226 -84.73870 13276 ft 326 kts 112°
2026-05-08 23:14 10.19244 -84.71856 12985 ft 311 kts 112°
2026-05-08 23:14 10.18306 -84.69930 12712 ft 299 kts 112°
2026-05-08 23:14 10.17387 -84.68041 12457 ft 298 kts 112°
2026-05-08 23:14 10.16470 -84.66159 12250 ft 297 kts 113°
2026-05-08 23:15 10.15569 -84.64312 12009 ft 295 kts 113°
2026-05-08 23:15 10.14427 -84.62581 11709 ft 299 kts 133°
2026-05-08 23:15 10.12718 -84.61373 11377 ft 301 kts 145°
2026-05-08 23:15 10.10930 -84.60288 11059 ft 298 kts 145°
2026-05-08 23:16 10.09161 -84.59211 10756 ft 293 kts 144°
2026-05-08 23:16 10.07446 -84.58175 10523 ft 277 kts 146°
2026-05-08 23:16 10.05725 -84.57409 10144 ft 266 kts 156°
2026-05-08 23:16 10.04030 -84.56840 10022 ft 246 kts 157°
2026-05-08 23:17 10.02471 -84.56341 9851 ft 226 kts 157°
2026-05-08 23:17 10.01024 -84.55889 9437 ft 208 kts 157°
2026-05-08 23:17 9.99703 -84.55480 8839 ft 196 kts 157°
2026-05-08 23:17 9.98415 -84.55074 8206 ft 193 kts 157°
2026-05-08 23:18 9.97130 -84.54658 7936 ft 194 kts 157°
2026-05-08 23:18 9.95834 -84.54227 7935 ft 199 kts 157°
2026-05-08 23:18 9.94480 -84.53767 7911 ft 208 kts 154°
2026-05-08 23:18 9.93371 -84.52877 7841 ft 204 kts 122°
2026-05-08 23:19 9.92607 -84.51656 7879 ft 206 kts 117°
2026-05-08 23:19 9.91877 -84.50405 7904 ft 206 kts 117°
2026-05-08 23:19 9.91141 -84.49154 7910 ft 206 kts 117°
2026-05-08 23:19 9.90422 -84.47918 7902 ft 205 kts 114°
2026-05-08 23:20 9.90156 -84.46533 7871 ft 201 kts 84°
2026-05-08 23:20 9.90442 -84.45145 7904 ft 202 kts 72°
2026-05-08 23:20 9.90842 -84.43799 7782 ft 193 kts 72°
2026-05-08 23:20 9.91233 -84.42486 6949 ft 198 kts 72°
2026-05-08 23:21 9.91627 -84.41148 6242 ft 197 kts 72°
2026-05-08 23:21 9.92016 -84.39789 5957 ft 205 kts 70°
2026-05-08 23:21 9.92618 -84.38458 5930 ft 210 kts 60°
2026-05-08 23:21 9.93272 -84.37137 5811 ft 213 kts 64°
2026-05-08 23:22 9.93842 -84.35750 5580 ft 213 kts 66°
2026-05-08 23:22 9.94371 -84.34344 5339 ft 214 kts 67°
2026-05-08 23:22 9.94900 -84.32925 5109 ft 215 kts 66°
2026-05-08 23:22 9.95428 -84.31505 4848 ft 215 kts 66°
2026-05-08 23:23 9.95960 -84.30089 4580 ft 214 kts 67°
2026-05-08 23:23 9.96458 -84.28746 4410 ft 189 kts 68°
2026-05-08 23:23 9.96894 -84.27587 4162 ft 163 kts 70°
2026-05-08 23:23 9.97267 -84.26567 3918 ft 150 kts 69°
2026-05-08 23:24 9.97627 -84.25593 3723 ft 150 kts 69°
2026-05-08 23:24 9.98002 -84.24606 3511 ft 150 kts 70°
2026-05-08 23:24 9.98370 -84.23620 3317 ft 148 kts 72°
2026-05-08 23:24 9.98733 -84.22657 3090 ft 145 kts 74°
2026-05-08 23:25 9.99081 -84.21712 2948 ft 133 kts 69°
2026-05-08 23:25 9.99346 -84.21008 2988 ft 76 kts 69°
2026-05-08 23:25 9.99503 -84.20586 3007 ft 57 kts 69°
2026-05-08 23:25 9.99557 -84.20460 3016 ft 14 kts 51°
2026-05-08 23:26 9.99596 -84.20437 3014 ft 0 kts
2026-05-08 23:26 9.99628 -84.20434 3014 ft 18 kts 12°
2026-05-08 23:26 9.99718 -84.20414 3016 ft 0 kts 342°